Regional Weather Roundup
Issued by NWS

Home | Current Version | Previous Version | Graphics & Text | Print | Product List | Glossary Off
Versions: 1 2 3 4 5 6 7 8 9 10 11 12 13 14 15 16 17 18 19 20 21 22 23 24 25 26 27 28 29 30 31 32 33 34 35 36 37 38 39 40 41 42 43 44 45 46 47 48 49 50

000
ASUS43 KTOP 281508
RWRKS

WEATHER ROUNDUP FOR KANSAS
NATIONAL WEATHER SERVICE GOODLAND KS
1000 AM CDT WED JUN 28 2017

NOTE:  "FAIR" INDICATES FEW OR NO CLOUDS BELOW 12,000 FEET WITH NO
SIGNIFICANT WEATHER AND/OR OBSTRUCTIONS TO VISIBILITY.

KSZ001>006-013>018-027>032-041>047-281600-
NORTHWEST KANSAS

CITY           SKY/WX    TMP DP  RH WIND       PRES   REMARKS
GOODLAND       SUNNY     74  54  49 N15       29.86R
HAYS           SUNNY     80  68  66 S25G31    29.76S
HILL CITY      SUNNY     79  67  66 SW15G25   29.77R
RUSSELL        SUNNY     80  68  66 S25G33    29.75F
$$

KSZ061>065-074>080-084>089-281600-
SOUTHWEST KANSAS

CITY           SKY/WX    TMP DP  RH WIND       PRES   REMARKS
DODGE CITY     MOSUNNY   80  64  58 S24G33    29.79S
ELKHART          N/A     76  48  37 W8          N/A
GARDEN CITY    SUNNY     80  60  50 S18G26    29.78S
GREAT BEND     SUNNY     80  68  66 S26G35    29.77S
LIBERAL        SUNNY     81  63  54 SW26G35   29.81R
PRATT          CLOUDY    75  66  73 S22G30    29.82F
$$

KSZ066>073-081>083-090>101-281600-
SOUTHEAST KANSAS

CITY           SKY/WX    TMP DP  RH WIND       PRES   REMARKS
CHANUTE          N/A    N/A N/A N/A MISG      29.91S
COFFEYVILLE    LGT RAIN  80  68  66 S20G29    29.91F
HUTCHINSON     MOSUNNY   80  68  66 S28G33    29.80F
MEDICINE LODGE   N/A     81  67  62 S18G32    29.80F
NEWTON         CLOUDY    78  69  73 S25G31    29.83F
PARSONS        MOSUNNY   80  68  66 S14G23    29.92F
WICHITA INTL   PTSUNNY   80  71  74 S18G24    29.84F
WICHITA JABRA  MOSUNNY   76  69  79 S15G25    29.84F
WICHITA MCCONL CLOUDY    78  68  72 S20       29.85F
WINFIELD       MOSUNNY   81  70  69 S21G33    29.88F
$$

KSZ007>012-019>026-033>040-048>060-102>105-281600-
NORTHEAST KANSAS

CITY           SKY/WX    TMP DP  RH WIND       PRES   REMARKS
CONCORDIA      SUNNY     82  69  64 SW23G31   29.74S
EMPORIA        CLOUDY    75  69  81 S21G31    29.83F
LAWRENCE       CLOUDY    78  69  73 S22G33    29.81F
MANHATTAN      MOSUNNY   81  70  69 SW18G30   29.76F
MARYSVILLE     MOSUNNY   79  70  73 S12G28    29.76F
OLATHE IND     CLOUDY    78  67  68 S21G31    29.86F
OLATHE EXE     CLOUDY    76  68  76 S20G29    29.86F
SALINA         SUNNY     82  70  66 S28G38    29.76F
TOPEKA BILLARD CLOUDY    76  70  82 S17G28    29.78F
TOPEKA FORBES  CLOUDY    78  69  73 S22G30    29.80F
$$



USA.gov is the U.S. government's official web portal to all federal, state and local government web resources and services.